Location: Pasarilla del Rebollar
(40.6790°N, 5.0062°W)
Time: 11:17:06
(UTC+00:00)

Meteor 1-27 Rocket - Pass Details

Date: 22 April 2026
Orbit: 829 x 908 km, 81.3° (Epoch: 15 May)

Event Time Altitude Azimuth Distance (km) Brightness Sun altitude
Exits shadow 03:45:56 32° 226° (SW) 1,514 4.4 -18.7°
Maximum altitude 03:48:25 51° 283° (WNW) 1,131 4.1 -18.3°
Drops below altitude 10° 03:54:11 10° 359° (N) 2,596 6.7 -17.4°
Sets 03:56:45 0° 5° (N) 3,536 7.5 -17.0°
